Preview of NWS' New Version of Forecast
This preview is not operational and should not be used for support decisions.

Regional Weather Roundup (RWR)

Issued by National Weather Service (NWS)

                            
000
ASUS46 KPQR 231110
RWROR 

OREGON REGIONAL WEATHER ROUNDUP
NATIONAL WEATHER SERVICE PORTLAND OR
400 AM PDT TUE APR 23 2019

NOTE: "FAIR" INDICATES FEW OR NO CLOUDS BELOW 12,000 FEET WITH
NO SIGNIFICANT WEATHER AND/OR OBSTRUCTIONS TO VISIBILITY.

ORZ001>013-231200-
NORTHWEST OREGON

  
CITY           SKY/WX    TMP DP  RH WIND       PRES   REMARKS
ASTORIA        CLOUDY    51  50  96 S10       30.20F FOG              
TILLAMOOK      CLOUDY    50  46  87 CALM      30.26R FOG              
NEWPORT        CLOUDY    50  48  93 E3        30.27S                  
PORTLAND       CLOUDY    57  49  74 SE9       30.21S                  
VANCOUVER WA   CLOUDY    56  51  84 E6        30.20S                  
SCAPPOOSE      CLOUDY    56  53  90 CALM      30.19F                  
HILLSBORO      CLOUDY    53  51  93 SE3       30.19F                  
AURORA         CLOUDY    56  49  77 S7        30.21F                  
MCMINNVILLE    CLOUDY    54  49  83 S7        30.20S                  
SALEM          CLOUDY    54  47  77 S6        30.21S                  
CORVALLIS      CLOUDY    54  50  86 NW6       30.23F                  
EUGENE         CLOUDY    56  48  74 CALM      30.22F                  
$$

ORZ021-028-231200-
SOUTHWEST OREGON

  
CITY           SKY/WX    TMP DP  RH WIND       PRES   REMARKS
NORTH BEND     CLOUDY    53  50  89 N5        30.25F                  
BROOKINGS      PTCLDY    50  48  93 CALM      30.19S                  
ROSEBURG       MOCLDY    54  47  77 CALM      30.22F                  
SEXTON SUMMIT  CLEAR     54  42  64 NW5       30.26S                  
GRANTS PASS    FAIR      52  46  82 SE3       30.24S                  
MEDFORD        PTCLDY    56  46  69 CALM      30.22S                  
$$

ORZ014>016-041-231200-
COLUMBIA GORGE

  
CITY           SKY/WX    TMP DP  RH WIND       PRES   REMARKS
TROUTDALE      LGT RAIN  55  52  89 CALM      30.22R FOG              
HOOD RIVER     CLOUDY    54  48  82 MISG      30.17S                  
THE DALLES     PTCLDY    57  47  69 NW9       30.16S                  
$$

ORZ029>031-041-044-049-050-061>064-502-503-505>511-231200-
EASTERN OREGON

  
CITY           SKY/WX    TMP DP  RH WIND       PRES   REMARKS
MADRAS         CLOUDY    54  46  76 SE6       30.21S                  
REDMOND        CLOUDY    51  45  79 CALM      30.20F                  
BEND           PTCLDY    52  45  76 S5        30.21F                  
PRINEVILLE     CLOUDY    50  45  81 CALM      30.21F                  
KLAMATH FALLS  PTCLDY    45  41  86 CALM      30.25S                  
LAKEVIEW       MOCLDY    43  38  82 NW7       30.25F                  
HERMISTON      CLOUDY    60  46  59 SW12      30.11F                  
PENDLETON      CLOUDY    53  46  77 CALM      30.13F                  
JOHN DAY       PTCLDY    51  42  71 CALM      30.22R                  
MEACHAM        CLOUDY    47  42  83 CALM      30.19S                  
LA GRANDE      CLOUDY    53  45  74 W5        30.18S                  
BAKER CITY     PTCLDY    44  38  79 N3        30.18S                  
BURNS          CLEAR     45  38  76 NW3       30.23R                  
ROME             N/A     44  34  67 S9        30.20S                  
ONTARIO        MOCLDY    51  41  68 CALM      30.16S                  
$$